Showing default

RISAT-2BR2, 46905

Orbit data source: Space-Track

RISAT-2BR2, 46905 is a payload satellite owned by ISRO (IN) in LEO that was launched on Sat, 07 Nov 2020 UTC via a PSLV-DL launch vehicle from the Sirharikota (SRI). Payload-class satellites include a variety of spacecraft equipped with specific instruments for various scientific and technological missions. These include communications satellites like Starlink; space stations such as the ISS; scientific satellites like the Hubble; Earth observation satellites from companies like Planet Labs, Umbra, and HawkEye 360; GPS; miniature CubeSats for education and research; and military/defense satellites.

Loading next visibility...
Identifier
46905, 2020-081A
Orbit
LEO
Country
Flag of ININ / IND
Related business
Manufacturer
ISRO
Mission
Operational Civil Radar Imaging
Bus & Motor
TECHSAR, Unknown motor
Mass
628 kg wet, 628 kg dry
Launch date (UTC)
2020-11-07 (5 years ago)
Launch vehicle
PSLV-DL
Launch site
Sirharikota (SRI)
Object type
Payload
Rocket body
Debris
Shape & HBR
Hex Cyl + 2 Pan + 1 Dish, Unknown HBR
Radar Cross Section
2.910 m², Large (>1 m²)

Expand to show TLE details & history
Last TLE update: 8 hours ago

TLE from 8 hours ago
0 RISAT-2BR2
1 46905U 20081A   25243.17738407  .00007247  00000-0  56211-3 0  9996
2 46905  36.8976 145.7495 0015237 309.1036  50.8350 15.00933136263867
Epoch: 2025-08-31T04:15Z
TLE epoch observation values (Epoch: 2025-08-31T04:15:25.983Z)
Latitude
-0°
Longitude
102.29016°
Altitude
556.465 km
Speed
7.589 km/s
True Right ascension
09h 42m 59s
True Declination
0° 00' 00"
Sunlit
Object was in daylight at epoch
Visualization orbit readout
Latitude
Unknown
Longitude
Unknown
Altitude
Unknown
Speed
Unknown
Apparent Right ascension
Unknown
Apparent Declination
Unknown
Sunlit
N/A
Visualization observer readout
Local Sidereal Time
04:02:03
Azimuth
Unknown
Elevation
Unknown
Doppler factor
Unknown
Orbital elements
Apogee altitude
577.519 km
Perigee altitude
556.354 km
Semi-major axis
6,945.074 km
Eccentricity
0.00152
Inclination
36.8976°
RAAN
145.7495°
Arg. of periapsis
309.1036°
True anomaly
50.97054°
Mean anomaly
50.835°
Eccentric anomaly
50.90275°
Mean motion
3.74997 °/min
Orbital period
96 mins
BSTAR
0.00056211
Loading maneuver chart data...
Computing Atmospheric mass density...
Loading historical data...
Loading historical data...
Loading historical data...
Loading historical data...
Loading historical data...
Loading historical data...
Loading historical data...

Documentation

Showing up to 5 results
|